This is the latest recevied weather packets stored in our database for station/object K6MBY. If no packets are shown the sender has not sent any weather packets the latest 1 day(s).
| Time | Temp. | Humidity | Pressure | Rain* | Wind** | Luminosity | Snow |
|---|---|---|---|---|---|---|---|
| 1778042220 | 10.56° C | 92% | 1019.2 hPa | 0 mm | - | 0 W/m² | - |
| 1778041918 | 10.56° C | 92% | 1019.3 hPa | 0 mm | - | 0 W/m² | - |
| 1778041617 | 10.56° C | 92% | 1019.4 hPa | 0 mm | - | 0 W/m² | - |
| 1778041315 | 10.56° C | 92% | 1019 hPa | 0 mm | - | 0 W/m² | - |
| 1778041013 | 10.56° C | 92% | 1019 hPa | 0 mm | - | 0 W/m² | - |
| 1778040104 | 10.56° C | 92% | 1018.7 hPa | 0 mm | - | 0 W/m² | - |
| 1778039801 | 10.56° C | 91% | 1018.7 hPa | 0 mm | - | 0 W/m² | - |
| 1778038891 | 10.56° C | 91% | 1018.5 hPa | 0 mm | - | 2 W/m² | - |
| 1778038588 | 10.56° C | 91% | 1018.5 hPa | 0 mm | - | 3 W/m² | - |
| 1778038285 | 10.56° C | 91% | 1018.4 hPa | 0 mm | - | 4 W/m² | - |
| 1778037983 | 10.56° C | 90% | 1018.3 hPa | 0 mm | - | 7 W/m² | - |
| 1778037680 | 10.56° C | 90% | 1018.3 hPa | 0 mm | - | 10 W/m² | - |
| 1778037377 | 11.11° C | 90% | 1018.3 hPa | 0 mm | - | 13 W/m² | - |
| 1778037074 | 11.11° C | 90% | 1018.1 hPa | 0 mm | - | 17 W/m² | - |
| 1778036772 | 11.11° C | 89% | 1018.3 hPa | 0 mm | - | 21 W/m² | - |
| 1778036166 | 11.11° C | 89% | 1018.4 hPa | 0 mm | - | 28 W/m² | - |
| 1778035862 | 11.67° C | 88% | 1018.4 hPa | 0 mm | - | 31 W/m² | - |
| 1778035559 | 11.67° C | 88% | 1018.5 hPa | 0 mm | - | 35 W/m² | - |
| 1778035255 | 11.67° C | 88% | 1018.4 hPa | 0 mm | - | 38 W/m² | - |
| 1778034951 | 11.67° C | 87% | 1018.5 hPa | 0 mm | - | 41 W/m² | - |
| 1778034650 | 12.22° C | 87% | 1018.4 hPa | 0 mm | - | 43 W/m² | - |
| 1778034347 | 12.22° C | 86% | 1018.3 hPa | 0 mm | - | 57 W/m² | - |
| 1778034044 | 12.22° C | 86% | 1018.3 hPa | 0 mm | - | 63 W/m² | - |
| 1778033136 | 12.22° C | 85% | 1018.4 hPa | 0 mm | - | 86 W/m² | - |
| 1778032531 | 12.22° C | 85% | 1018.5 hPa | 0 mm | - | 105 W/m² | - |
* Rain latest hour (hover to see other rain measurements)
** Current wind speed in m/s (hover to see current wind gust speed)